AAL448 SEGU-KMIA

Flight info

Callsign AAL448
Flight time N/A
Altitude 34000
Route MIBAR UL207 LIXAS UZ593 ERABA/N0465F360 UZ593 PARRI UB767 PZA UZ751 SELEK UL345 FUNKO/N0459F370
Aircraft B738/M-SDE2E3FGHIRWXY/LB1

Departure

Time 2026-04-18 12:54
Airport José Joaquín de Olmedo International Airport (SEGU)

Arrival

Time N/A
Airport Miami International Airport (KMIA)
Time Latitude Longitude Altitude Speed Heading
2026-04-18 12:45 -2.14733 -79.88166 27 ft 0 kts 209°
2026-04-18 12:46 -2.14760 -79.88177 27 ft 7 kts 182°
2026-04-18 12:46 -2.14799 -79.88130 27 ft 8 kts 119°
2026-04-18 12:46 -2.14802 -79.88125 27 ft 0 kts 119°
2026-04-18 12:50 -2.14803 -79.88123 27 ft 1 kts 119°
2026-04-18 12:50 -2.14833 -79.88062 27 ft 16 kts 99°
2026-04-18 12:50 -2.14759 -79.87991 27 ft 16 kts 30°
2026-04-18 12:51 -2.14662 -79.87912 27 ft 12 kts 62°
2026-04-18 12:51 -2.14641 -79.87852 27 ft 8 kts 74°
2026-04-18 12:51 -2.14636 -79.87837 27 ft 0 kts 76°
2026-04-18 12:51 -2.14633 -79.87801 27 ft 7 kts 88°
2026-04-18 12:52 -2.14638 -79.87775 27 ft 0 kts 109°
2026-04-18 12:52 -2.14639 -79.87773 27 ft 2 kts 109°
2026-04-18 12:52 -2.14652 -79.87752 27 ft 2 kts 152°
2026-04-18 12:52 -2.14677 -79.87757 27 ft 3 kts 206°
2026-04-18 12:53 -2.14685 -79.87762 27 ft 0 kts 210°
2026-04-18 12:53 -2.14702 -79.87771 27 ft 18 kts 210°
2026-04-18 12:54 -2.15056 -79.87974 27 ft 96 kts 210°
2026-04-18 12:54 -2.15847 -79.88429 27 ft 161 kts 211°
2026-04-18 12:54 -2.16925 -79.89067 444 ft 182 kts 210°
2026-04-18 12:54 -2.17956 -79.89637 1465 ft 169 kts 210°
2026-04-18 12:55 -2.18981 -79.90305 1834 ft 189 kts 230°
2026-04-18 12:55 -2.19442 -79.91557 2273 ft 201 kts 275°
2026-04-18 12:55 -2.18870 -79.92853 2730 ft 216 kts 315°
2026-04-18 12:55 -2.17576 -79.93728 3204 ft 234 kts 331°
2026-04-18 12:56 -2.16106 -79.94556 3750 ft 251 kts 328°
2026-04-18 12:56 -2.14615 -79.95558 4345 ft 265 kts 324°
2026-04-18 12:56 -2.13098 -79.96685 5075 ft 274 kts 323°
2026-04-18 12:56 -2.11590 -79.97835 5898 ft 277 kts 323°
2026-04-18 12:57 -2.10056 -79.98998 6727 ft 280 kts 323°
2026-04-18 12:57 -2.08704 -80.00016 7471 ft 282 kts 322°
2026-04-18 12:57 -2.07136 -80.01193 8208 ft 286 kts 322°
2026-04-18 12:57 -2.05525 -80.02399 8964 ft 290 kts 322°
2026-04-18 12:58 -2.03895 -80.03620 9758 ft 293 kts 322°
2026-04-18 12:58 -2.02266 -80.04840 10424 ft 299 kts 322°
2026-04-18 12:58 -2.00551 -80.06126 10828 ft 315 kts 322°
2026-04-18 12:58 -1.98759 -80.07469 11314 ft 326 kts 322°
2026-04-18 12:59 -1.96928 -80.08839 12023 ft 330 kts 322°
2026-04-18 12:59 -1.95077 -80.10225 12747 ft 334 kts 321°
2026-04-18 12:59 -1.93231 -80.11607 13417 ft 336 kts 322°
2026-04-18 12:59 -1.91341 -80.13023 14057 ft 341 kts 322°
2026-04-18 13:00 -1.89425 -80.14459 14679 ft 345 kts 322°
2026-04-18 13:00 -1.87494 -80.15905 15280 ft 349 kts 322°
2026-04-18 13:00 -1.85528 -80.17378 15865 ft 353 kts 322°
2026-04-18 13:00 -1.83565 -80.18848 16407 ft 357 kts 322°
2026-04-18 13:01 -1.81564 -80.20347 16966 ft 361 kts 322°
2026-04-18 13:01 -1.79542 -80.21860 17493 ft 364 kts 322°
2026-04-18 13:01 -1.77496 -80.23392 18063 ft 367 kts 322°
2026-04-18 13:01 -1.75446 -80.24927 18615 ft 369 kts 322°
2026-04-18 13:02 -1.73383 -80.26472 19158 ft 372 kts 321°
2026-04-18 13:02 -1.71308 -80.28026 19716 ft 373 kts 321°
2026-04-18 13:02 -1.69227 -80.29584 20256 ft 375 kts 321°
2026-04-18 13:02 -1.67131 -80.31152 20756 ft 378 kts 321°
2026-04-18 13:03 -1.65015 -80.32735 21217 ft 381 kts 321°
2026-04-18 13:03 -1.60754 -80.35925 22202 ft 384 kts 321°
2026-04-18 13:03 -1.58602 -80.37536 22646 ft 387 kts 321°
2026-04-18 13:04 -1.56436 -80.39158 23077 ft 390 kts 321°
2026-04-18 13:04 -1.54257 -80.40790 23514 ft 392 kts 321°
2026-04-18 13:04 -1.52069 -80.42428 23908 ft 396 kts 321°
2026-04-18 13:04 -1.49836 -80.44099 24392 ft 397 kts 322°
2026-04-18 13:05 -1.47616 -80.45761 24790 ft 400 kts 322°
2026-04-18 13:05 -1.45382 -80.47433 25166 ft 403 kts 322°
2026-04-18 13:05 -1.43124 -80.49123 25584 ft 405 kts 322°
2026-04-18 13:05 -1.40890 -80.50796 25976 ft 407 kts 322°
2026-04-18 13:06 -1.38586 -80.52522 26334 ft 410 kts 323°
2026-04-18 13:06 -1.36291 -80.54240 26682 ft 413 kts 323°
2026-04-18 13:06 -1.34010 -80.55948 27074 ft 415 kts 323°
2026-04-18 13:06 -1.31684 -80.57690 27434 ft 417 kts 323°
2026-04-18 13:07 -1.29360 -80.59429 27777 ft 420 kts 323°
2026-04-18 13:07 -1.26986 -80.61205 28115 ft 422 kts 323°
2026-04-18 13:07 -1.24630 -80.62968 28439 ft 424 kts 323°
2026-04-18 13:07 -1.22264 -80.64739 28808 ft 426 kts 323°
2026-04-18 13:08 -1.19877 -80.66525 29092 ft 429 kts 323°
2026-04-18 13:08 -1.17497 -80.68307 29435 ft 431 kts 323°
2026-04-18 13:08 -1.15082 -80.70114 29755 ft 433 kts 323°
2026-04-18 13:08 -1.12668 -80.71920 30094 ft 435 kts 323°
2026-04-18 13:09 -1.10243 -80.73734 30367 ft 438 kts 323°
2026-04-18 13:09 -1.07804 -80.75559 30671 ft 440 kts 324°
2026-04-18 13:09 -1.05343 -80.77399 30933 ft 443 kts 324°
2026-04-18 13:09 -1.02866 -80.79253 31294 ft 443 kts 324°
2026-04-18 13:10 -1.00377 -80.81116 31489 ft 447 kts 324°
2026-04-18 13:10 -0.97882 -80.82983 31836 ft 448 kts 324°
2026-04-18 13:10 -0.95373 -80.84861 32058 ft 451 kts 324°
2026-04-18 13:10 -0.92853 -80.86747 32330 ft 453 kts 324°
2026-04-18 13:11 -0.90346 -80.88623 32551 ft 455 kts 324°
2026-04-18 13:11 -0.87779 -80.90544 32860 ft 457 kts 324°
2026-04-18 13:11 -0.85242 -80.92442 33125 ft 459 kts 324°
2026-04-18 13:11 -0.82686 -80.94356 33463 ft 460 kts 324°
2026-04-18 13:12 -0.80131 -80.96270 33890 ft 457 kts 324°
2026-04-18 13:12 -0.77559 -80.98196 33902 ft 459 kts 324°
2026-04-18 13:12 -0.72471 -81.02003 33903 ft 455 kts 324°
2026-04-18 13:13 -0.67378 -81.05814 33913 ft 456 kts 324°
2026-04-18 13:13 -0.62278 -81.09629 33904 ft 457 kts 324°
2026-04-18 13:14 -0.57205 -81.13425 33905 ft 455 kts 324°
2026-04-18 13:14 -0.52132 -81.17223 33905 ft 454 kts 324°
2026-04-18 13:15 -0.47074 -81.21008 33904 ft 455 kts 324°
2026-04-18 13:15 -0.41980 -81.24820 33904 ft 455 kts 324°
2026-04-18 13:16 -0.36922 -81.28606 33905 ft 455 kts 324°
2026-04-18 13:16 -0.31825 -81.32420 33903 ft 456 kts 324°
2026-04-18 13:17 -0.26783 -81.36192 33905 ft 452 kts 324°
2026-04-18 13:17 -0.21750 -81.39957 33905 ft 454 kts 324°
2026-04-18 13:18 -0.16685 -81.43745 33904 ft 451 kts 324°
2026-04-18 13:18 -0.11770 -81.47710 33904 ft 454 kts 319°
2026-04-18 13:19 -0.07177 -81.52038 33904 ft 453 kts 317°
2026-04-18 13:19 -0.02671 -81.56435 33905 ft 453 kts 317°
2026-04-18 13:20 0.01850 -81.60815 33907 ft 452 kts 317°
2026-04-18 13:20 0.06380 -81.65156 33905 ft 448 kts 317°
2026-04-18 13:21 0.10944 -81.69501 33911 ft 454 kts 317°
2026-04-18 13:21 0.15528 -81.73804 33902 ft 448 kts 322°
2026-04-18 13:22 0.18180 -81.75403 33921 ft 444 kts 338°
2026-04-18 13:22 0.21115 -81.76434 33910 ft 446 kts 344°
2026-04-18 13:22 0.27130 -81.77975 33909 ft 445 kts 347°
2026-04-18 13:23 0.33138 -81.79426 33908 ft 440 kts 347°
2026-04-18 13:23 0.39105 -81.80953 33910 ft 446 kts 346°
2026-04-18 13:24 0.45092 -81.82564 33910 ft 442 kts 345°
2026-04-18 13:24 0.51051 -81.84213 33900 ft 443 kts 345°
2026-04-18 13:25 0.56987 -81.85875 33908 ft 441 kts 345°
2026-04-18 13:25 0.62923 -81.87544 33901 ft 442 kts 345°
2026-04-18 13:26 0.68837 -81.89209 33915 ft 443 kts 345°